Location: ??
(35.4032°N, 139.3073°E)
Time: 03:05:46
(UTC+00:00)

Cosmos 1470 Rocket - Visible Passes

Search period start: 25 July 2024 00:00
Search period end: 04 August 2024 00:00
Orbit: 599 x 630 km, 82.5° (Epoch: 24 July)

Date Brightness Start Highest point End Pass type
(mag) Time Alt. Az. Time Alt. Az. Time Alt. Az.
25 Jul 4.0 18:19:29 10° S 18:23:43 59° E 18:27:57 10° NNE visible
26 Jul 3.4 18:36:01 14° SSW 18:39:43 69° W 18:44:00 10° N visible
27 Jul 6.2 17:15:59 10° ESE 17:18:23 15° E 17:20:48 10° NE visible
27 Jul 4.2 18:52:30 14° SW 18:55:48 35° W 18:59:45 10° NNW visible
28 Jul 5.3 17:31:52 17° SE 17:34:13 28° E 17:37:52 10° NNE visible
28 Jul 5.1 19:08:58 10° WSW 19:11:57 19° WNW 19:15:01 10° NNW visible
29 Jul 4.1 17:48:18 30° SSE 17:50:07 54° E 17:54:19 10° NNE visible
30 Jul 3.4 18:04:41 41° SSW 18:06:06 76° W 18:10:24 10° N visible
31 Jul 6.1 16:43:57 13° E 16:44:48 14° E 16:46:55 10° NE visible
31 Jul 4.1 18:21:02 32° WSW 18:22:09 38° W 18:26:10 10° N visible
01 Aug 5.3 17:00:17 25° E 17:00:36 25° E 17:04:09 10° NE visible
01 Aug 4.9 18:37:22 19° W 18:38:18 20° WNW 18:41:32 10° NNW visible
02 Aug 4.2 17:16:34 49° E 17:16:34 49° E 17:20:38 10° NNE visible
02 Aug 5.6 18:53:40 10° W 18:54:32 11° WNW 18:55:42 10° NW visible
03 Aug 3.5 17:32:51 72° NNW 17:32:51 72° NNW 17:36:45 10° N visible
